Date,TemperatureHighF,TemperatureAvgF,TemperatureLowF,DewpointHighF,DewpointAvgF,DewpointLowF,HumidityHigh,HumidityAvg,HumidityLow,PressureMaxIn,PressureMinIn,WindSpeedMaxMPH,WindSpeedAvgMPH,GustSpeedMaxMPH,PrecipitationSumIn
2014-1-1,23,21,17,23,20,15,98,94,90,0.00,40.00,2,1,5,0.00
2014-1-2,30,23,18,25,21,16,97,91,82,0.00,40.00,1,0,4,0.00
2014-1-3,28,23,13,26,21,7,97,92,81,0.00,40.00,4,2,12,0.00
2014-1-4,19,10,-5,12,5,-100,89,81,69,0.00,40.00,4,1,8,0.00
2014-1-5,17,2,-16,6,-6,-23,82,71,46,0.00,40.00,4,1,12,0.00
2014-1-6,24,2,-18,7,-6,-25,81,67,45,0.00,40.00,4,1,7,0.01
2014-1-7,28,14,3,18,9,-1,91,79,51,0.00,40.00,3,1,9,0.01
2014-1-8,30,22,15,25,19,13,97,91,81,0.00,40.00,3,1,9,0.00
2014-1-9,28,22,16,28,20,12,99,95,91,0.00,40.00,5,2,13,0.00
2014-1-10,26,22,14,26,21,12,98,95,90,0.00,40.00,5,3,13,0.00
2014-1-11,33,30,25,33,17,-100,100,90,98,0.00,40.00,6,2,17,0.00
2014-1-12,28,24,21,28,23,20,100,96,93,0.00,40.00,6,4,18,0.00
2014-1-13,29,26,22,29,26,21,100,99,96,0.00,40.00,5,4,15,0.00
2014-1-14,30,25,22,28,25,21,100,98,94,0.00,40.00,3,2,8,0.00
2014-1-15,32,25,14,29,24,12,100,95,87,0.00,40.00,3,1,8,0.06
2014-1-16,33,16,6,29,14,3,96,89,82,0.00,40.00,2,1,4,0.21
2014-1-17,36,14,-2,26,9,-7,94,83,68,0.00,40.00,3,1,9,0.20
2014-1-18,40,12,0,24,6,-100,96,81,53,0.00,40.00,2,1,8,0.28
2014-1-19,37,13,1,21,8,-3,94,81,48,0.00,40.00,3,1,9,0.28
2014-1-20,46,16,1,22,10,-3,94,81,33,0.00,40.00,2,1,6,0.00
2014-1-21,41,10,-3,17,3,-8,89,75,35,0.00,40.00,3,1,8,0.00
2014-1-22,32,12,0,23,8,-4,96,82,54,0.00,40.00,2,2,6,0.01
2014-1-23,35,14,2,16,8,-3,91,78,35,0.00,40.00,3,2,8,0.01
2014-1-24,40,11,-1,13,4,-6,87,74,30,0.00,40.00,3,1,8,0.00
2014-1-25,36,10,-3,10,1,-100,86,72,34,0.00,40.00,5,1,10,0.00
2014-1-26,29,12,-7,15,3,-13,84,70,44,0.00,40.00,3,1,8,0.00
2014-1-27,31,18,-9,11,1,-18,72,50,27,0.00,40.00,5,2,11,0.00
2014-1-28,27,1,-19,11,-10,-27,84,60,27,0.00,40.00,4,2,10,0.00
2014-1-29,26,21,15,24,19,11,98,92,85,0.00,40.00,2,1,10,0.00
2014-1-30,26,25,23,25,24,22,99,97,92,0.00,40.00,4,2,10,0.00
2014-1-31,26,21,17,24,18,14,98,90,66,0.00,40.00,4,2,11,0.07
2014-2-1,27,14,-5,15,8,-100,93,80,51,0.00,40.00,4,2,10,0.11
2014-2-2,24,13,3,16,9,-1,87,81,68,0.00,40.00,4,1,9,0.03
2014-2-3,24,17,9,19,14,6,93,87,77,0.00,40.00,5,1,13,0.00
2014-2-4,14,2,-13,12,-4,-20,90,75,57,0.00,40.00,5,2,13,0.00
2014-2-5,12,-6,-13,-1,-14,-20,77,71,54,0.00,40.00,3,2,7,0.00
2014-2-6,17,2,-21,3,-7,-100,83,70,50,0.00,40.00,3,2,10,0.01
2014-2-7,18,15,7,15,12,3,93,89,83,0.00,40.00,3,1,10,0.01
2014-2-8,27,22,16,27,22,14,100,96,92,0.00,40.00,4,2,10,0.00
2014-2-9,34,29,26,33,29,26,100,99,94,0.00,40.00,4,3,11,0.11
2014-2-10,36,26,22,27,25,21,100,94,70,0.00,40.00,4,2,9,0.24
2014-2-11,27,25,22,27,25,21,100,99,97,0.00,40.00,3,2,10,0.01
2014-2-12,32,29,25,32,29,25,100,100,100,0.00,40.00,5,3,17,0.00
2014-2-13,35,32,25,35,32,21,100,99,83,0.00,40.00,6,4,19,0.51
2014-2-14,33,25,13,32,24,12,100,97,90,0.00,40.00,3,1,6,0.06
2014-2-15,35,32,31,35,31,-100,100,98,98,0.00,40.00,3,2,6,0.14
2014-2-16,36,30,15,35,30,14,100,99,93,0.00,40.00,6,3,22,0.13
2014-2-17,37,26,8,26,19,6,94,76,60,0.00,40.00,5,2,12,0.59
2014-2-18,38,30,16,26,20,12,98,67,37,0.00,40.00,7,3,22,0.05
2014-2-19,35,27,8,28,12,-2,91,55,23,0.00,40.00,7,4,22,0.01
2014-2-20,26,20,-2,21,12,-7,92,72,46,0.00,40.00,7,4,20,0.01
2014-2-21,37,25,16,23,15,3,100,71,32,0.00,40.00,7,4,16,0.04
2014-2-22,27,17,11,17,9,-100,92,74,47,0.00,40.00,4,1,11,0.02
2014-2-23,33,25,15,27,22,13,100,88,68,0.00,40.00,5,2,15,0.06
2014-2-24,40,34,29,30,27,24,92,77,68,0.00,40.00,5,3,12,0.01
2014-2-25,41,30,9,33,19,0,100,66,26,0.00,40.00,6,3,13,0.06
2014-2-26,46,17,-1,23,7,-100,93,72,38,0.00,40.00,4,2,9,0.06
2014-2-27,47,36,21,34,30,19,100,84,47,0.00,40.00,5,3,14,0.02
2014-2-28,38,33,31,35,32,31,100,98,88,0.00,40.00,5,3,16,0.16
2014-3-1,31,29,31,31,22,-100,100,93,100,0.00,40.00,1,0,3,0.18
2014-3-2,36,28,14,34,27,13,100,97,89,0.00,40.00,2,0,6,0.13
2014-3-3,38,34,32,36,34,32,100,99,89,0.00,40.00,5,3,17,0.26
2014-3-4,43,33,22,35,31,22,100,93,59,0.00,40.00,3,2,9,0.70
2014-3-5,43,34,19,37,29,19,100,82,60,0.00,40.00,4,2,14,0.18
2014-3-6,39,35,32,38,34,28,100,93,66,0.00,40.00,6,3,17,0.85
2014-3-7,41,33,23,33,29,21,100,87,53,0.00,40.00,4,2,11,0.12
2014-3-8,46,27,12,27,19,-100,100,80,38,0.00,40.00,4,1,11,0.02
2014-3-9,45,32,20,36,27,20,100,87,43,0.00,40.00,5,2,15,0.09
2014-3-10,38,33,30,37,33,29,100,99,87,0.00,40.00,7,3,18,0.44
2014-3-11,43,30,18,31,24,14,100,83,41,0.00,40.00,4,1,11,0.40
2014-3-12,44,21,6,19,12,3,96,74,33,0.00,40.00,4,2,10,0.01
2014-3-13,47,25,8,25,17,5,95,76,40,0.00,40.00,5,2,13,0.01
2014-3-14,46,27,12,33,21,10,100,82,39,0.00,40.00,5,2,15,0.00
2014-3-15,44,31,19,31,23,10,100,76,29,0.00,40.00,4,2,10,0.32
2014-3-16,51,33,16,24,18,-100,97,64,31,0.00,40.00,5,2,13,0.32
2014-3-17,41,34,27,31,22,17,96,66,39,0.00,40.00,7,5,20,0.00
2014-3-18,38,23,14,20,16,12,93,77,46,0.00,40.00,5,2,14,0.21
2014-3-19,42,19,1,15,7,-3,91,63,29,0.00,40.00,5,2,15,0.02
2014-3-20,47,37,27,18,10,-100,57,36,24,0.00,40.00,8,5,30,0.02
2014-3-21,40,24,7,8,-1,-100,66,39,16,0.00,40.00,4,2,12,0.00
2014-3-22,40,26,15,8,4,-100,65,44,25,0.00,40.00,5,2,16,0.00
2014-3-23,42,24,6,14,7,1,80,54,27,0.00,40.00,6,3,14,0.00
2014-3-24,45,38,24,18,15,12,73,42,26,0.00,40.00,5,3,12,0.00
2014-3-25,56,33,15,21,15,12,88,56,20,0.00,40.00,5,2,14,0.00
2014-3-26,45,35,28,34,30,21,100,84,45,0.00,40.00,5,1,15,0.10
2014-3-27,34,29,25,31,28,25,100,96,72,0.00,40.00,6,2,18,0.24
2014-3-28,43,31,25,31,27,25,100,85,51,0.00,40.00,5,3,12,0.32
2014-3-29,37,33,30,36,32,29,100,97,85,0.00,40.00,5,1,15,0.33
2014-3-30,36,32,28,35,32,27,100,98,90,0.00,40.00,3,1,8,0.15
2014-3-31,41,32,20,30,26,18,100,79,58,0.00,40.00,4,2,8,0.63
2014-4-1,45,28,11,29,20,9,100,78,38,0.00,40.00,6,3,13,0.35
2014-4-2,39,29,24,26,25,24,100,87,59,0.00,40.00,4,2,10,0.35
2014-4-3,44,29,16,25,21,14,100,77,35,0.00,40.00,4,1,10,0.02
2014-4-4,43,27,13,31,21,11,100,80,46,0.00,40.00,5,2,11,0.02
2014-4-5,45,32,29,33,28,-100,100,89,42,0.00,40.00,4,1,11,0.10
2014-4-6,45,33,23,36,26,16,100,79,34,0.00,40.00,6,2,15,0.14
2014-4-7,50,33,14,28,22,12,93,66,43,0.00,40.00,4,2,8,0.02
2014-4-8,60,38,20,33,26,20,100,69,30,0.00,40.00,5,2,13,0.00
2014-4-9,61,40,24,41,28,23,99,71,30,0.00,40.00,7,3,18,0.18
2014-4-10,53,42,24,32,26,19,100,61,28,0.00,40.00,5,2,17,0.01
2014-4-11,60,43,22,27,24,20,92,54,27,0.00,40.00,6,3,17,0.01
2014-4-12,57,40,24,32,25,-100,97,64,26,0.00,40.00,5,3,16,0.00
2014-4-13,42,30,22,31,16,4,100,61,29,0.00,40.00,8,4,24,0.06
2014-4-14,45,21,6,13,5,1,80,58,19,0.00,40.00,4,2,10,0.06
2014-4-15,48,34,22,28,17,13,76,53,24,0.00,40.00,11,2,22,0.00
2014-4-16,45,31,14,20,16,12,92,59,29,0.00,40.00,4,2,13,0.00
2014-4-17,56,37,16,25,19,14,90,57,27,0.00,40.00,5,2,15,0.00
2014-4-18,49,40,28,40,28,20,100,65,38,0.00,40.00,6,3,20,0.89
2014-4-19,59,45,20,25,16,-100,95,41,18,0.00,40.00,5,3,14,0.76
2014-4-20,58,43,26,29,25,21,90,54,25,0.00,40.00,5,3,13,0.00
2014-4-21,64,40,20,27,20,13,91,56,15,0.00,40.00,4,2,12,0.00
2014-4-22,65,43,32,43,35,27,100,78,30,0.00,40.00,8,4,26,0.36
2014-4-23,37,31,27,32,29,26,100,93,75,0.00,40.00,5,3,14,0.57
2014-4-24,40,33,21,37,31,20,100,91,66,0.00,40.00,4,2,13,0.37
2014-4-25,51,38,31,42,36,31,100,91,62,0.00,40.00,4,1,18,0.36
2014-4-26,41,36,33,39,36,33,100,97,91,0.00,40.00,3,1,7,0.49
2014-4-28,36,30,24,23,22,19,93,73,49,0.00,40.00,5,2,17,0.00
2014-4-29,48,32,11,24,17,8,97,60,31,0.00,40.00,6,2,16,0.00
2014-4-30,58,34,14,22,15,8,95,58,14,0.00,40.00,6,2,15,0.00
2014-5-1,64,40,20,27,21,17,88,57,19,0.00,40.00,4,2,12,0.00
2014-5-2,67,48,26,35,26,20,96,54,18,0.00,40.00,4,2,11,0.00
2014-5-3,67,56,27,33,24,16,97,37,15,0.00,40.00,8,4,21,0.00
2014-5-4,60,51,34,30,25,20,84,40,22,0.00,40.00,8,4,25,0.00
2014-5-5,56,46,31,36,29,25,93,57,31,0.00,40.00,5,3,15,0.00
2014-5-6,56,38,30,39,34,28,99,86,44,0.00,40.00,3,2,10,0.12
2014-5-7,37,37,37,32,32,32,81,81,81,0.00,40.00,3,3,9,0.00
2014-5-13,53,45,31,25,20,17,76,41,25,0.00,40.00,4,2,9,0.00
2014-5-14,60,42,22,31,22,16,94,55,20,0.00,40.00,4,2,9,0.00
2014-5-15,66,48,27,32,29,26,98,57,23,0.00,40.00,5,2,13,0.00
2014-5-16,64,47,33,44,35,30,100,70,29,0.00,40.00,5,2,15,0.07
2014-5-17,66,50,37,41,34,-100,100,64,25,0.00,40.00,5,3,12,0.07
2014-5-18,61,49,35,39,33,28,98,59,32,0.00,40.00,7,3,20,0.02
2014-5-19,57,42,27,34,28,-100,98,64,29,0.00,40.00,5,3,16,0.01
2014-5-20,62,45,28,36,29,-100,97,62,28,0.00,40.00,4,3,14,0.01
2014-5-21,71,53,41,43,36,29,97,58,22,0.00,40.00,5,3,16,0.02
2014-5-22,74,53,34,42,33,-100,100,59,17,0.00,40.00,4,2,11,0.01
2014-5-23,76,59,41,41,36,27,84,48,19,0.00,40.00,4,2,12,0.04
2014-5-24,70,55,36,48,39,-100,98,61,34,0.00,40.00,5,2,12,0.03
2014-5-25,72,56,38,47,41,36,100,63,27,0.00,40.00,4,2,12,0.01
2014-5-26,75,58,36,42,36,27,98,54,20,0.00,40.00,6,3,21,0.01
2014-5-27,77,58,36,39,35,26,94,51,16,0.00,40.00,7,3,19,0.00
2014-5-28,78,59,40,55,40,31,97,56,23,0.00,40.00,5,2,12,0.03
2014-5-29,64,50,37,47,32,18,99,59,17,0.00,40.00,5,2,13,0.01
2014-5-30,76,52,30,42,32,24,99,59,16,0.00,40.00,6,2,20,0.14
2014-5-31,66,56,45,45,37,-100,92,53,32,0.00,40.00,5,3,14,0.01
2014-6-1,62,47,38,41,38,36,98,74,43,0.00,40.00,5,2,10,0.03
2014-6-2,73,65,47,42,34,28,78,35,20,0.00,40.00,6,3,14,0.01
2014-6-3,70,55,45,49,37,31,88,54,26,0.00,40.00,6,3,17,0.03
2014-6-4,67,51,34,41,36,31,96,63,29,0.00,40.00,7,2,19,0.01
2014-6-5,72,54,31,39,32,27,96,54,19,0.00,40.00,6,3,16,0.04
2014-6-6,71,52,31,38,33,25,95,56,19,0.00,40.00,6,3,15,0.02
2014-6-7,68,54,39,44,34,-100,88,54,25,0.00,40.00,5,3,13,0.02
2014-6-8,62,49,35,47,38,33,97,71,33,0.00,40.00,5,2,15,0.01
2014-6-9,73,54,32,43,34,27,95,58,19,0.00,40.00,7,3,19,0.04
2014-6-10,70,57,37,47,35,19,93,51,21,0.00,40.00,7,3,20,0.02
2014-6-11,68,54,36,39,32,25,91,48,20,0.00,40.00,5,2,13,0.02
2014-6-12,77,60,38,48,35,28,92,47,18,0.00,40.00,5,3,21,0.01
2014-6-13,65,59,50,41,31,24,61,36,24,0.00,40.00,8,5,25,0.02
2014-6-14,54,45,35,41,31,-100,93,64,39,0.00,40.00,5,3,15,0.02
2014-6-15,64,48,32,44,36,30,97,69,28,0.00,40.00,6,2,22,0.00
2014-6-16,60,44,34,47,41,33,98,88,51,0.00,40.00,6,2,22,0.00
2014-6-17,49,42,37,39,36,30,97,82,50,0.00,40.00,3,2,13,0.00
2014-6-18,45,38,33,40,34,31,96,86,66,0.00,40.00,6,2,16,0.10
2014-6-19,64,48,37,43,38,34,97,75,32,0.00,40.00,6,2,18,0.02
2014-6-20,75,57,35,44,38,34,96,58,24,0.00,40.00,6,3,15,0.00
2014-6-21,75,58,37,47,37,-100,94,56,19,0.00,40.00,7,2,16,0.00
2014-6-22,71,53,38,45,40,34,92,64,30,0.00,40.00,8,3,18,0.03
2014-6-23,74,56,39,45,39,35,93,61,25,0.00,40.00,4,2,13,0.03
2014-6-24,78,59,42,58,42,36,94,62,22,0.00,40.00,5,2,13,0.00
2014-6-25,76,61,42,53,45,40,94,61,28,0.00,40.00,5,2,12,0.00
2014-6-26,66,57,48,53,47,40,95,71,46,0.00,40.00,5,2,13,0.00
2014-6-27,52,49,46,49,47,43,97,93,86,0.00,40.00,3,1,8,0.00
2014-6-28,62,49,39,52,41,-100,98,78,42,0.00,40.00,5,2,20,0.00
2014-6-29,70,54,31,41,34,18,97,55,20,0.00,40.00,7,3,19,0.01
2014-6-30,67,52,33,38,32,21,94,53,23,0.00,40.00,4,2,11,0.01
2014-7-1,76,55,33,44,35,30,94,56,21,0.00,40.00,4,2,10,0.01
2014-7-2,82,64,46,49,40,35,86,48,19,0.00,40.00,5,2,12,0.01
2014-7-3,83,66,44,48,44,40,87,50,23,0.00,40.00,6,3,14,0.03
2014-7-4,85,69,53,49,44,40,71,45,22,0.00,40.00,6,3,15,0.02
2014-7-5,83,67,44,52,45,39,89,52,21,0.00,40.00,5,2,12,0.00
2014-7-6,85,64,40,54,43,35,91,56,20,0.00,40.00,4,2,10,0.00
2014-7-7,83,63,43,50,43,29,94,58,15,0.00,40.00,4,2,11,0.06
2014-7-8,85,68,48,55,45,39,86,50,22,0.00,40.00,4,2,11,0.06
2014-7-9,83,66,43,52,46,38,92,55,22,0.00,40.00,5,2,16,0.00
2014-7-10,80,69,57,54,50,47,89,55,31,0.00,40.00,5,2,14,0.00
2014-7-11,84,64,45,53,48,44,95,63,26,0.00,40.00,4,2,14,0.00
2014-7-12,82,64,52,58,51,47,95,65,30,0.00,40.00,4,2,11,0.28
2014-7-13,85,66,48,56,49,44,95,63,25,0.00,40.00,4,2,10,0.01
2014-7-14,80,66,51,52,49,46,87,56,35,0.00,40.00,5,3,17,0.00
2014-7-15,80,65,48,53,49,45,89,57,36,0.00,40.00,5,3,13,0.00
2014-7-16,78,63,41,48,42,36,94,55,23,0.00,40.00,4,2,10,0.00
2014-7-17,81,61,39,50,43,37,92,58,26,0.00,40.00,5,2,15,0.00
2014-7-18,83,64,41,51,44,36,94,57,21,0.00,40.00,4,2,12,0.00
2014-7-19,80,61,38,51,40,34,93,56,21,0.00,40.00,5,2,13,0.00
2014-7-20,82,59,40,50,41,38,93,62,21,0.00,40.00,6,2,15,0.00
2014-7-21,78,63,53,56,51,45,98,70,32,0.00,40.00,6,3,21,0.21
2014-7-22,84,64,42,56,47,41,97,62,26,0.00,40.00,4,2,9,0.02
2014-7-23,87,70,51,52,44,30,90,47,14,0.00,40.00,5,2,12,0.00
2014-7-24,77,61,43,47,38,26,89,50,20,0.00,40.00,7,3,20,0.00
2014-7-25,76,53,29,41,30,24,92,53,15,0.00,40.00,5,2,13,0.00
2014-7-26,80,61,33,42,33,21,93,47,12,0.00,40.00,4,2,11,0.00
2014-7-27,88,63,38,46,34,21,84,46,9,0.00,40.00,4,2,12,0.00
2014-7-28,87,70,48,49,40,32,71,35,17,0.00,40.00,4,3,13,0.00
2014-7-29,72,64,58,53,49,44,74,60,42,0.00,40.00,4,2,11,0.00
2014-7-30,77,62,49,48,46,39,88,60,26,0.00,40.00,4,2,11,0.00
2014-7-31,80,56,41,49,40,40,95,63,27,0.00,40.00,5,2,14,0.00
2014-8-1,85,60,45,53,45,39,95,67,20,0.00,40.00,4,3,12,1.06
2014-8-2,82,62,40,56,47,39,98,66,24,0.00,40.00,4,2,10,0.01
2014-8-3,86,65,44,49,44,40,92,54,20,0.00,40.00,4,2,11,0.00
2014-8-4,72,56,48,56,51,43,97,84,55,0.00,40.00,4,2,11,0.29
2014-8-5,62,57,53,58,55,52,98,94,84,0.00,40.00,3,1,7,0.64
2014-8-6,63,55,53,57,54,52,98,96,81,0.00,40.00,3,1,9,0.73
2014-8-7,74,65,51,52,49,44,81,57,40,0.00,40.00,4,2,13,0.01
2014-8-8,71,55,40,56,48,39,97,81,43,0.00,40.00,4,2,11,0.60
2014-8-9,76,57,39,55,46,38,98,72,29,0.00,40.00,3,1,8,0.49
2014-8-10,80,62,43,51,46,40,95,62,24,0.00,40.00,3,1,9,0.00
2014-8-11,85,64,44,52,45,39,92,58,20,0.00,40.00,3,1,8,0.00
2014-8-12,80,63,46,56,48,43,88,62,35,0.00,40.00,5,1,14,0.00
2014-8-13,78,61,52,58,54,49,97,80,41,0.00,40.00,4,2,14,0.44
2014-8-14,74,62,54,59,55,50,97,80,51,0.00,40.00,4,2,10,0.08
2014-8-15,78,60,44,53,48,43,97,70,39,0.00,40.00,4,2,12,0.05
2014-8-16,75,62,39,49,44,38,97,59,33,0.00,40.00,5,2,15,0.00
2014-8-17,78,61,38,48,41,36,96,57,23,0.00,40.00,4,2,13,0.00
2014-8-18,81,62,48,47,42,37,84,53,22,0.00,40.00,7,3,19,0.01
2014-8-19,73,55,39,53,44,37,93,70,36,0.00,40.00,4,2,13,0.11